Location: Unspecified
(49.2170°N, 0.0000°E)
Time: 19:30:50
(UTC+00:00)

Tiros 1 despin weight - Pass Details

Date: 24 January 2021
Orbit: 593 x 642 km, 48.2° (Epoch: 26 February)

Event Time Altitude Azimuth Distance (km) Brightness Sun altitude
Rises 15:12:16 0° 240° (WSW) 2,884 ? 10.9°
Reaches altitude 10° 15:14:37 10° 235° (SW) 1,972 ? 10.6°
Maximum altitude 15:19:01 52° 160° (SSE) 762 ? 10.2°
Drops below altitude 10° 15:23:21 10° 84° (E) 1,948 ? 9.7°
Sets 15:25:40 0° 79° (E) 2,846 ? 9.4°
